Regional Weather Roundup
Issued by NWS

Home | Current Version | Previous Version | Text Only | Print | Product List | Glossary Off
Versions: 1 2 3 4 5 6 7 8 9 10 11 12 13 14 15 16 17 18 19 20 21 22 23 24 25 26 27 28 29 30 31 32 33 34 35 36 37 38 39 40 41 42 43 44 45 46 47 48 49 50

000
ASUS44 KMEG 300600
RWRTN
TENNESSEE HOURLY STATE WEATHER ROUNDUP
NATIONAL WEATHER SERVICE MEMPHIS TN
100 AM CDT THU OCT 30 2014

TNZ002-004-019-021-049-052-054-088>092-300700-
WEST TENNESSEE

CITY           SKY/WX    TMP DP  RH WIND       PRES   REMARKS
MEMPHIS INTL   CLEAR     48  44  86 CALM      30.14F
NWS MEMPHIS      N/A     46 N/A N/A MISG        N/A
JACKSON        CLEAR     42  40  92 CALM      30.14F
DYERSBURG      CLEAR     43  30  61 CALM      30.17R
UNION CITY     CLEAR     39  39 100 CALM      30.15R
PARIS          CLEAR     37  34  87 N5        30.15S WCI  34
SAVANNAH       CLEAR     39  39 100 CALM      30.14S
$$

TNZ008-025-027-028-033-062-065-066-300700-
NORTH MIDDLE TENNESSEE

CITY           SKY/WX    TMP DP  RH WIND       PRES   REMARKS
NASHVILLE      CLEAR     48  38  68 N5        30.15R
CLARKSVILLE    CLEAR     42  38  85 CALM      30.15S
CROSSVILLE     CLEAR     46  35  65 N6        30.11F
$$

TNZ061-075-076-078-094-096-097-300700-
SOUTH MIDDLE TENNESSEE

CITY           SKY/WX    TMP DP  RH WIND       PRES   REMARKS
SHELBYVILLE    CLEAR     39  39 100 CALM      30.14S
$$

TNZ017-018-042-046-047-300700-
NORTHEAST TENNESSEE

CITY           SKY/WX    TMP DP  RH WIND       PRES   REMARKS
TRI CITIES     FOG       39  39 100 CALM      30.09S VSB 1/4
ELIZABETHTON   CLOUDY    36  36 100 CALM      30.09S FOG
$$

TNZ012-013-036-069-073-074-300700-
CENTRAL EAST TENNESSEE

CITY           SKY/WX    TMP DP  RH WIND       PRES   REMARKS
KNOXVILLE      PTCLDY    44  42  93 CALM      30.09F
OAK RIDGE      MOCLDY    44  42  93 CALM      30.11F FOG
GATLINBURG     CLEAR     39  39 100 CALM      30.09F
$$

TNZ083-085-099-300700-
SOUTHEAST TENNESSEE

CITY           SKY/WX    TMP DP  RH WIND       PRES   REMARKS
CHATTANOOGA    CLEAR     45  43  93 CALM      30.10F
$$

SKY/WX REPORTED AS FAIR MEANS FEW OR NO CLOUDS BELOW
12 THOUSAND FEET.




USA.gov is the U.S. government's official web portal to all federal, state and local government web resources and services.